SL-3 DEB

Satellite information

Favourite Embed

Satellite Type and Status

DEBRISIN ORBIT

Key statistics

Satellite SL-3 DEB at a glance.

Uptime

18203

Days in orbit

Revolutions

≈ 14.1

Per day

Orbit

LEO

Low Earth Orbit

Inclination

81.3

Latest

Satellite identification and parameters

Extended collection of information and parameters for SL-3 DEB.

Object identification

Identified? True

Debris? True

Object name: SL-3 DEB

International designator: 1975-124C

Object number (NORAD): 26848

Object ID (CCSDS): 26848

Country: COMMONWEALTH OF INDEPENDENT STATES (CIS)

Current information (Y/N): Y

RCS size: SMALL

Orbital parameters

Period: 102.123 minutes

Inclination: 81.2744 deg

SMA: 7237.306 km

Apoapsis: 867.49 km

Periapsis: 850.853 km

RAAN: 81.5621 deg

Eccentricy: 0.00114937

Argument of periapsis: 267.1461 deg

Mean anomaly: 92.8394 deg

Mean motion: 14.10059185 rev/day

Mean motion (dot): 0.00000135 rev/day2

B* drag term: 0.000069309648 1/REarth

Two-line elements (TLE)

Creation date: Oct. 26, 2025, 2:54 a.m.

Reference frame: TEME

Reference center: EARTH

Epoch: Oct. 25, 2025, 7:31 p.m. UTC

TLE line 0: 0 SL-3 DEB

TLE line 1: 1 26848U 75124C 25298.81341693 .00000135 00000-0 69310-4 0 9990

TLE line 2: 2 26848 81.2744 81.5621 0011494 267.1461 92.8394 14.10059185326173

Live tracking on map

Real-time ground track for satellite SL-3 DEB.

In-orbit conjunctions

A list of the most updated potential collisions computed for object SL-3 DEB.

Target Orbit TCA Probability of collision Miss distance Type
FENGYUN 1C DEB SSO 2025-10-14 01:20:13 0.000296694 63.0 (m) DEBRIS
FENGYUN 1C DEB SSO 2025-08-28 18:50:37 0.0001228133 94.0 (m) DEBRIS
THORAD DELTA 1 DEB SSO 2024-11-07 19:38:23 0.0008436564 146.0 (m) DEBRIS
CZ-6A DEB SSO 2024-10-03 05:04:31 0.0001524965 118.0 (m) DEBRIS

Associated space launch

The Meteor-1 series was the first series of Soviet meteorological satellites.

SL-3 DEB was lifted into orbit during the mission ‘Vostok 8A92M | Meteor-1 23 (38L)’, on board a Vostok 8A92M space rocket.

The launch took place on Dec. 25, 1975, 7 p.m. from 41/1.

For more information about the launch, click the button.

Launch to space Vostok 8A92M | Meteor-1 23 (38L)
Vostok 8A92M | Meteor-1 23 (38L)

Agency: N/A

Status: Launch Successful

Launch date: Dec. 25, 1975, 7 p.m. UTC

Rocket: Vostok 8A92M

Launch pad: 41/1

Location: Plesetsk Cosmodrome, Russian Federation

...

Latest news about this satellite

There are no fresh news available about this satellite. Check back as we update our databases every day.


Newsletter sign-up

Weekly statistics, charts and insights to help you stay on top of the space industry.